TimeEST,TemperatureF,Dew PointF,Humidity,Sea Level PressureIn,VisibilityMPH,Wind Direction,Wind SpeedMPH,Gust SpeedMPH,PrecipitationIn,Events,Conditions,WindDirDegrees,DateUTC
12:54 AM,46.0,39.0,76,29.86,10.0,South,11.5,-,N/A,,Clear,180,2013-02-08 05:54:00
1:54 AM,46.9,42.1,83,29.84,10.0,South,6.9,-,N/A,,Overcast,180,2013-02-08 06:54:00
2:54 AM,46.4,42.8,87,29.84,10.0,SSW,9.2,-,N/A,,Overcast,210,2013-02-08 07:54:00
3:50 AM,46.4,44.6,93,29.84,4.0,SW,6.9,-,0.02,Rain,Light Rain,220,2013-02-08 08:50:00
3:54 AM,46.0,45.0,96,29.84,5.0,SW,8.1,-,0.02,Rain,Light Rain,230,2013-02-08 08:54:00
4:07 AM,46.4,44.6,93,29.84,7.0,SW,8.1,-,0.02,Rain,Light Rain,220,2013-02-08 09:07:00
4:54 AM,46.9,46.0,97,29.84,5.0,WSW,12.7,-,0.04,Rain,Light Rain,240,2013-02-08 09:54:00
5:54 AM,45.0,44.1,97,29.88,10.0,NW,16.1,21.9,0.05,Rain,Light Rain,310,2013-02-08 10:54:00
6:54 AM,41.0,39.9,96,29.93,10.0,WNW,15.0,24.2,0.01,,Overcast,300,2013-02-08 11:54:00
7:30 AM,39.2,37.4,93,29.95,10.0,NW,11.5,20.7,N/A,,Overcast,310,2013-02-08 12:30:00
7:54 AM,37.9,36.0,93,29.98,10.0,NW,17.3,24.2,N/A,,Overcast,310,2013-02-08 12:54:00
8:05 AM,37.4,35.6,93,29.98,10.0,NW,11.5,-,N/A,,Overcast,320,2013-02-08 13:05:00
8:54 AM,37.0,33.1,86,30.03,10.0,NW,11.5,20.7,N/A,,Overcast,310,2013-02-08 13:54:00
9:02 AM,37.4,33.8,87,30.02,10.0,NW,17.3,24.2,N/A,,Overcast,310,2013-02-08 14:02:00
9:32 AM,35.6,33.8,93,30.04,10.0,NW,16.1,20.7,N/A,,Overcast,320,2013-02-08 14:32:00
9:54 AM,36.0,32.0,86,30.06,10.0,WNW,16.1,23.0,N/A,,Overcast,300,2013-02-08 14:54:00
10:54 AM,35.1,30.9,85,30.10,10.0,NNW,13.8,-,N/A,,Overcast,330,2013-02-08 15:54:00
11:43 AM,35.6,30.2,81,30.11,10.0,NW,15.0,-,N/A,,Overcast,320,2013-02-08 16:43:00
11:54 AM,35.1,30.9,85,30.13,10.0,NW,12.7,25.3,N/A,,Overcast,310,2013-02-08 16:54:00
12:04 PM,35.6,30.2,81,30.12,10.0,NW,15.0,21.9,N/A,,Overcast,320,2013-02-08 17:04:00
12:54 PM,35.1,30.9,85,30.14,10.0,NW,15.0,23.0,N/A,,Overcast,310,2013-02-08 17:54:00
1:54 PM,35.1,30.0,82,30.15,10.0,NNW,12.7,-,N/A,,Overcast,330,2013-02-08 18:54:00
2:54 PM,35.1,28.9,78,30.16,10.0,WNW,11.5,-,N/A,,Overcast,300,2013-02-08 19:54:00
4:54 PM,34.0,28.9,82,30.21,10.0,NW,10.4,-,N/A,,Overcast,310,2013-02-08 21:54:00
5:54 PM,34.0,28.9,82,30.25,10.0,NW,8.1,-,N/A,,Overcast,310,2013-02-08 22:54:00
6:54 PM,34.0,28.9,82,30.27,10.0,WNW,8.1,-,N/A,,Overcast,300,2013-02-08 23:54:00
7:52 PM,33.8,28.4,81,30.27,10.0,NW,8.1,-,N/A,,Overcast,310,2013-02-09 00:52:00
7:54 PM,33.1,28.0,82,30.30,10.0,NW,9.2,-,N/A,,Overcast,310,2013-02-09 00:54:00
8:54 PM,33.1,28.0,82,30.31,10.0,NW,8.1,-,N/A,,Overcast,320,2013-02-09 01:54:00
9:54 PM,33.1,28.0,82,30.32,10.0,NW,5.8,-,N/A,,Overcast,320,2013-02-09 02:54:00
10:54 PM,32.0,28.0,85,30.33,10.0,WNW,5.8,-,N/A,,Overcast,290,2013-02-09 03:54:00
11:36 PM,33.8,28.4,81,30.31,10.0,NW,5.8,-,N/A,,Overcast,310,2013-02-09 04:36:00
11:54 PM,32.0,28.0,85,30.33,10.0,NW,5.8,-,N/A,,Overcast,320,2013-02-09 04:54:00